GFSNE_con_mucape_084.txt.gz
CAPE
646 963 1066 772 868 1203 1506 1491 963 1057 1231 1632 1645 1473 1962 1942 1952 2064 2236 2382 2381 2282 2379 2429 1719 1195 1764 1928 1824 1196 1029 888 231 529 159 0 0 0
412 638 583 1202 903 1030 1182 1148 1575 1142 1142 1654 2467 2407 2228 1808 1609 1969 2100 2266 2272 2237 2151 1883 1759 1204 1562 1786 2034 1373 1322 1082 833 572 692 272 0 0
462 1153 1351 1275 1457 1446 1244 1045 1222 1357 1125 1107 1675 1253 1293 1642 1731 1386 1552 2322 2577 2445 2249 2244 1818 1292 1264 1752 1864 1807 1622 1511 1160 770 518 485 0 0
851 816 911 912 1130 1493 1543 1222 1565 1578 1748 1606 1441 1486 1563 1393 1040 1513 1940 1981 2157 1795 1109 1355 1408 1176 1141 1554 1693 1903 1632 1731 1417 1047 567 444 193 0
1114 769 975 927 757 841 1061 1023 894 1296 1340 1447 1368 1253 1090 1075 1675 1940 1756 1738 1648 1511 1423 1341 1073 998 1068 1104 1530 1637 1803 1806 1817 1143 851 494 409 45
1041 964 987 1138 1091 873 888 1076 942 1036 1207 1247 959 1161 1534 1897 1858 1701 1353 1411 1565 1585 1409 1210 988 759 757 833 1086 1463 1532 1632 1886 1512 917 721 465 204
1133 1302 1271 1442 1598 1504 1378 1321 1163 1081 1079 1232 1698 1544 1374 1429 1608 1736 1425 1063 888 717 743 593 583 1014 1069 1132 939 936 1310 1235 1632 1826 890 778 587 292
904 971 1023 1240 1246 1363 1674 1843 1896 1261 1134 1307 1369 1254 1130 1250 1353 1444 891 522 79 364 973 661 1215 1072 794 1060 1064 997 1113 972 1216 1781 1193 965 665 470
1348 1265 1194 922 1057 1169 1279 1631 1781 1723 1640 1468 1157 954 805 704 605 359 176 191 187 236 644 871 1262 1034 671 894 829 657 803 1134 996 1531 1797 1038 862 634
1456 1562 1468 1358 1209 1299 1163 1121 1173 1335 1526 1532 1371 1156 1019 976 1036 916 682 703 637 575 891 1032 503 341 295 297 238 95 265 744 832 1181 1761 1328 1196 726
1090 1055 1430 1682 1849 1840 1552 1433 1293 1376 1643 1726 1630 1565 1581 1580 1505 1472 1274 864 757 576 473 479 375 326 372 187 60 169 239 337 569 937 1435 1594 1283 1045
1174 1124 1189 1056 1183 1496 1449 1408 1374 1334 1389 1377 1579 1631 1624 1646 1754 1832 1801 1553 1131 780 434 447 373 318 283 199 149 236 104 116 378 685 821 1308 1274 1318
1124 1021 1031 1071 1093 1145 1171 1106 1161 1082 926 936 1080 1159 1241 1312 1366 1346 1309 1253 1000 747 578 365 326 329 296 324 361 394 343 207 258 339 312 289 947 1261
905 1100 1250 1305 1270 1290 1320 1354 1262 1080 959 877 844 766 818 947 990 1047 1113 1105 989 842 779 713 531 398 311 294 330 422 441 422 369 555 411 327 439 1066
664 982 979 897 1121 1210 1219 1318 1338 1309 1243 1092 918 836 761 714 671 752 850 931 949 911 790 650 496 403 343 228 207 325 455 501 577 706 655 509 551 659
36 32 327 551 519 506 573 670 932 1191 1415 1373 1319 1225 962 710 639 637 591 500 474 485 416 440 492 425 399 328 392 433 510 633 669 720 578 560 405 560
8 20 16 12 225 272 131 337 544 714 852 1144 1229 1179 1076 911 687 480 440 460 437 485 524 518 483 438 385 339 350 560 571 730 835 973 919 891 637 511
0 0 0 0 0 4 9 107 659 790 922 978 973 1020 1074 1047 916 856 774 534 448 540 592 621 512 398 589 778 900 684 710 862 904 900 805 900 795 597
0 0 0 0 0 0 0 7 339 748 1058 1083 895 857 916 915 977 913 838 685 660 707 759 735 531 347 363 408 204 1067 999 804 755 953 952 897 781 620
0 0 0 0 0 0 0 0 0 51 538 1014 1069 965 848 813 849 770 750 615 663 671 693 691 683 685 361 261 260 268 504 1085 984 819 775 843 941 949
0 0 0 0 0 0 0 0 0 0 27 207 659 931 969 958 867 758 670 588 423 384 467 506 570 749 651 536 484 540 467 357 861 846 766 714 841 715
0 0 0 0 2 2 0 0 0 5 189 400 611 813 817 805 803 778 692 631 369 172 331 498 528 577 549 488 498 494 558 526 540 518 529 883 741 753
0 0 0 0 0 0 26 8 44 103 349 589 803 827 826 865 650 655 598 561 477 440 378 221 374 359 352 407 418 376 437 544 611 512 388 420 780 903

GFSNE_con_mucape_087.txt.gz
CAPE
845 631 780 777 757 958 1111 1411 863 1019 1179 1863 2203 1710 1932 1829 1786 1716 1690 1839 1959 2160 2163 2176 1876 1596 1231 1675 1782 1375 1444 1343 997 541 533 492 0 0
538 407 576 952 1124 1182 950 972 1269 1181 950 1655 1877 2067 1751 1675 1565 1384 1202 1190 1722 2385 2105 2074 1951 1561 1191 1476 1617 1743 1481 1665 1348 936 496 441 76 0
693 536 1026 1119 1318 1380 1392 980 1263 1506 1243 1036 1198 1313 1564 1419 1166 1672 1909 1850 1875 1805 1241 1459 1438 1260 1186 1088 1470 1510 1660 1586 1749 1209 865 480 383 2
723 726 493 716 810 1176 1375 1026 1047 1114 1376 1194 1253 1227 1100 948 1092 1626 1624 1581 1540 1446 1367 1314 1386 1339 1113 964 1080 1309 1370 1518 1618 1583 1031 765 445 207
675 672 1001 672 867 545 630 723 777 756 1149 1102 920 997 882 813 1572 1608 1516 1431 1493 1482 1545 1515 1183 639 631 679 692 833 1212 1277 1322 1754 1242 843 612 343
923 1025 778 776 818 914 823 755 922 950 828 878 945 772 1081 1333 1612 1625 1508 1374 1220 1075 858 634 514 450 762 820 857 743 708 973 1105 1179 1622 870 683 486
956 888 1015 1057 1004 1264 1442 1328 1337 1423 1363 1001 896 965 1060 899 854 1076 1248 1087 516 14 39 576 177 406 578 558 504 735 668 706 866 867 1488 1238 891 581
1094 1035 1073 790 896 1068 1173 1160 1417 1488 1570 1636 1408 1160 1075 850 730 732 655 362 1 62 475 181 232 433 555 520 387 487 473 338 435 874 822 1569 971 895
1295 1231 1147 1171 1120 1014 837 767 880 988 1321 1472 1412 1402 1322 1278 1064 807 781 808 598 476 443 483 418 537 380 257 284 379 347 214 270 843 742 1320 1401 994
1233 1211 1225 1149 1228 1330 1319 1269 1155 1054 983 931 982 1145 1290 1273 1127 1074 1212 1194 1042 960 700 532 434 335 293 161 197 66 73 67 192 458 628 894 1335 1186
1289 1212 1202 1034 1074 1266 1211 1107 1214 1413 1472 1355 1230 1205 1264 1327 1359 1333 1270 1214 1097 889 771 955 797 383 202 140 53 92 49 101 36 81 364 634 967 1203
870 907 920 948 935 889 921 981 954 822 841 882 924 975 1080 1101 1174 1157 1248 1248 1111 1028 861 567 347 250 210 168 74 121 139 173 262 200 116 328 580 706
552 638 756 871 1069 1192 1249 1257 1092 1029 1070 1113 1103 1029 912 859 967 954 962 997 946 948 818 648 494 405 397 443 397 268 189 157 196 213 263 274 206 267
340 431 467 554 616 805 980 1177 1204 1133 1170 1202 1194 1108 1007 960 894 863 781 760 750 706 706 714 655 533 495 502 416 317 321 254 151 77 161 283 387 221
91 146 194 243 296 522 529 418 467 611 737 938 1028 963 1113 1122 1153 1090 984 862 720 705 690 713 667 552 503 454 326 356 350 306 248 51 98 298 420 375
28 62 90 50 32 97 64 40 150 211 114 118 294 492 722 774 871 1035 1043 949 776 660 552 462 421 412 333 360 395 411 321 250 168 132 140 211 367 475
0 0 5 10 13 0 19 16 0 72 167 190 235 386 559 759 772 775 819 905 958 886 774 707 455 307 375 422 413 383 316 219 149 153 173 216 340 586
0 0 0 0 0 0 0 0 0 0 13 285 447 499 474 538 599 653 651 643 575 780 793 701 540 468 540 610 459 275 205 124 88 229 353 373 389 445
0 0 0 0 0 0 0 0 0 0 0 20 311 482 451 483 491 492 411 347 358 447 603 690 688 635 594 654 661 225 96 165 180 318 485 482 490 442
0 0 0 0 0 0 0 0 0 0 0 0 0 137 380 595 600 720 635 530 502 600 613 530 532 499 436 349 290 398 378 292 508 486 447 505 575 593
0 0 0 0 0 0 6 6 3 1 0 1 0 1 65 378 431 1056 1021 897 679 720 608 579 398 309 193 138 215 368 429 328 236 370 675 649 575 563
0 0 0 0 0 0 0 2 3 2 10 28 34 19 148 309 387 490 630 619 760 594 453 510 583 459 347 254 277 327 347 307 259 301 342 323 425 357
0 0 0 0 0 0 0 0 0 0 0 3 10 3 9 159 223 234 237 473 893 590 392 377 442 453 423 304 182 100 202 283 266 252 340 359 353 361

GFSNE_con_mucape_093.txt.gz
CAPE
1800 2031 1515 1428 1924 1639 1853 2319 1996 1746 1788 2577 2800 2946 2472 2508 2017 2532 3125 2051 1679 1403 1056 1100 1126 1178 1262 1379 1055 1235 1237 1250 1384 1613 1256 981 603 122
1497 1733 1841 1303 1744 2068 2100 1895 1935 1864 1611 1938 2229 2489 2829 2388 1626 2489 2670 1841 1262 1197 1110 1077 1149 1268 1370 956 938 924 982 1103 1075 1167 1623 1133 858 472
1644 1697 1742 2009 1488 1795 2326 2063 1988 1948 1653 1620 2040 2095 2702 2726 2122 2057 1747 2603 1749 1472 1292 1113 1115 1145 873 515 568 612 650 768 904 935 1319 1559 934 711
1796 1580 1521 1275 2015 2059 1836 2622 2165 2198 1647 1676 1607 1353 1961 2224 2317 2545 2027 1492 1946 1467 1071 1065 1017 611 142 219 360 414 488 425 545 719 801 1339 1312 859
1473 1758 1653 1765 1888 1292 1656 1366 1179 1557 1629 1696 1593 1679 1882 1873 2153 1945 2187 2120 1134 407 289 35 192 380 223 163 168 222 246 288 547 534 614 716 1224 1108
1623 1607 1770 1661 1848 2136 1895 2074 1694 1792 1666 2018 1769 1819 1886 2103 2375 2073 1843 1813 1956 1712 724 114 324 424 443 449 372 338 220 184 248 349 390 578 651 1214
1354 1429 1713 1555 1137 1140 1401 2141 1949 1928 1530 1487 1453 1510 1542 1457 1723 1583 2147 2159 2184 1695 1191 1043 592 738 539 294 512 432 178 125 164 201 184 271 557 694
1781 1931 1720 958 932 758 797 755 895 2070 1925 1286 1238 1551 2325 2176 1736 1744 1692 1748 1399 976 1506 823 512 701 629 423 287 335 73 5 51 140 157 105 360 456
2225 2377 2114 1384 1289 1717 1236 845 774 767 711 2084 1863 2399 2460 2764 2492 2592 2241 2094 1878 1285 1459 938 618 699 815 479 588 437 85 6 0 14 27 58 349 428
1520 1681 2027 2047 1809 1711 1914 1925 1986 2229 1851 1186 1362 1907 2255 2292 2496 2315 2239 2071 1730 1308 2028 1362 832 894 1043 1035 683 422 65 11 89 71 34 66 57 272
590 863 1030 1206 978 731 858 1727 1944 1976 1332 1004 823 765 713 719 804 1052 1552 1486 1268 1100 1371 1458 1252 1134 1309 1221 1137 403 161 66 5 166 142 78 20 41
94 292 418 338 368 455 570 783 1248 1757 1620 1810 1789 1358 1247 1353 1182 932 1423 1588 1444 1394 1355 1363 1191 1239 1225 972 1101 1093 1081 562 420 271 162 117 121 9
0 21 65 154 252 255 209 221 277 343 389 382 350 1030 1367 1558 1594 1697 1655 1529 1507 1541 1343 1680 1500 1360 1386 1366 1244 1210 1217 1206 1191 836 499 333 172 140
0 8 5 13 33 103 131 129 125 87 80 89 86 92 71 69 81 126 1178 1596 1597 1861 2026 2686 1624 1490 1553 1459 1328 1182 1236 1306 1333 1162 1053 594 369 208
35 30 34 31 26 40 37 23 17 24 26 36 38 41 32 20 0 165 284 1381 1763 1683 1491 1660 1706 1985 1598 1555 1488 1508 1390 1327 1245 1211 1130 993 891 691
0 0 17 44 44 31 21 16 5 3 0 0 4 0 0 0 5 3 13 53 105 474 1223 1621 1868 2069 1785 1570 1375 1297 1337 1357 1290 1320 1303 1230 1027 811
0 0 0 0 0 0 0 0 0 0 0 0 0 0 0 0 0 0 2 44 138 256 347 288 1660 2107 1605 2051 1287 1182 1310 1370 1349 1382 1549 1437 1026 925
0 0 0 0 0 0 0 0 0 0 0 0 0 0 0 0 0 2 3 8 40 212 314 496 902 955 815 1345 843 1078 1212 1329 1308 1674 1593 1445 1100 937
0 0 0 0 0 0 0 0 0 0 7 0 0 0 10 8 6 4 4 9 9 18 98 213 324 399 535 567 863 487 1134 1183 1320 1364 1228 1255 1344 1298
0 0 0 0 0 0 0 0 0 0 0 0 6 0 0 5 6 11 29 39 56 48 34 172 204 449 1029 556 552 934 633 1143 1215 1148 968 861 1193 928
0 0 0 0 0 0 0 0 0 0 0 0 0 0 0 0 0 2 9 10 4 31 34 60 287 351 845 1069 450 605 926 621 625 1148 1190 1014 1169 1279
0 0 0 0 0 0 0 0 0 0 0 0 0 0 0 0 14 24 31 20 37 37 64 66 181 949 461 747 194 376 748 930 845 459 320 265 1149 1052
0 0 0 0 0 0 0 0 0 0 0 0 0 0 0 0 0 0 1 1 35 45 33 25 27 546 622 570 180 221 556 698 654 438 457 423 148 138

GFSNE_con_mucape_096.txt.gz
CAPE
1729 1930 1858 1214 1424 1604 1997 2236 2169 1623 1575 3025 2209 2990 2436 2346 1982 2083 2313 1639 1627 1078 1025 1029 1054 1191 1288 1151 919 978 1023 1092 1092 1092 1299 1519 921 520
1441 1499 1803 962 1255 1301 1409 1451 1757 1915 1584 1918 1919 2253 2549 2202 1584 1871 1779 1314 1205 1275 1433 1445 1248 1134 1127 787 726 692 752 789 928 942 989 1578 1225 810
1799 1745 1764 1690 1191 962 1220 1374 1212 1224 1373 1345 1769 1828 2665 2438 2312 2312 1725 1557 842 1283 1387 961 403 702 568 172 286 339 421 498 622 699 775 907 1489 1124
1199 1443 1566 976 1504 1581 1160 1763 1965 1677 1341 1813 2159 1413 2103 2088 2055 2577 1719 1026 957 540 363 300 72 28 284 124 155 133 197 238 384 420 524 701 791 1333
1240 1224 1447 1336 1594 1027 931 904 748 804 1228 1054 1081 912 1279 1836 1934 2850 1705 1812 1404 534 462 239 45 115 296 298 313 236 168 141 138 346 420 449 597 718
1311 1178 1080 1211 1583 1766 1988 1825 1911 1843 1875 1098 837 619 734 1478 1555 1087 669 711 1134 967 772 440 282 402 426 400 351 341 365 158 93 64 204 262 342 526
1373 1451 1362 1147 971 1206 1417 2086 2308 1647 909 517 621 523 621 939 1674 879 906 845 1301 1081 759 1007 439 161 129 69 68 250 217 69 8 24 64 56 106 223
1849 2067 1832 1175 958 772 705 685 798 2300 2062 1615 1100 1227 2639 1963 1696 1397 1312 978 1044 827 1217 605 384 325 217 248 173 255 320 271 8 0 13 58 51 61
2021 1962 1724 814 1214 1357 1030 852 750 749 745 2486 1904 1933 2903 2915 2429 2415 2589 2054 1799 1181 1297 789 816 767 365 271 427 416 446 219 0 9 1 5 6 61
1753 1761 1956 1787 1163 1041 1686 1522 1577 1863 2184 1562 1749 2179 2671 2640 3149 2664 2674 2846 2290 1731 2051 1036 781 843 805 663 609 605 515 90 25 34 45 34 5 9
725 761 608 640 631 491 831 1808 1863 1821 1437 1089 1109 1049 1036 931 866 1215 1451 1361 1229 1050 1176 828 729 747 739 773 718 625 607 495 243 125 107 101 92 90
433 90 157 164 180 170 165 220 803 1200 685 700 838 824 1090 1473 1466 1391 1899 1761 1591 1406 1460 1617 1521 1406 1293 1015 721 733 896 621 739 688 587 459 277 160
27 16 0 0 13 29 44 53 62 92 99 70 61 357 681 1089 1251 1612 3068 2889 1967 1811 1531 1902 1623 1772 1891 1581 1413 1077 836 818 1041 939 813 822 689 523
30 7 8 2 0 1 6 25 55 47 40 30 15 27 39 42 26 43 593 507 495 1564 1849 2813 2172 2119 2149 1709 1608 1328 1344 1233 1252 1309 1349 1126 859 684
43 39 31 22 14 7 4 0 0 6 1 5 11 3 1 0 0 121 692 1788 2130 1676 938 2289 2183 2413 2225 2237 2081 1903 1611 1585 1533 1408 1616 1554 1555 1402
0 0 0 0 0 0 0 0 0 2 5 1 0 4 1 0 0 0 0 0 0 0 874 1325 2369 2749 1902 2678 2846 1912 1906 1916 1570 1648 1663 1734 1974 1669
0 0 0 0 0 0 0 0 0 0 0 0 0 0 0 0 0 0 0 0 0 0 0 0 912 1515 1159 2506 1374 1188 1524 1583 1773 1451 3016 1909 1855 1814
0 0 0 0 0 0 0 0 0 0 0 0 0 0 0 0 0 0 0 0 0 0 0 1 30 79 112 289 234 639 821 951 1235 1512 1975 1623 1623 1984
0 0 0 0 0 0 0 0 0 0 0 0 0 0 0 0 0 0 0 0 0 1 1 4 9 70 364 251 145 13 69 161 787 1516 1995 1929 1950 1715
0 0 0 0 0 0 0 0 0 0 0 0 0 0 0 0 0 0 0 0 0 0 0 0 0 0 25 47 121 420 140 856 379 646 789 1093 1320 1031
0 0 0 0 0 0 0 0 0 0 0 0 0 0 0 0 0 0 0 0 0 7 0 0 0 3 14 131 167 226 211 238 380 872 1090 1208 1178 1242
0 0 0 0 0 0 0 0 0 0 0 0 0 0 0 0 0 0 0 0 0 2 2 2 12 13 13 16 40 208 378 347 293 114 225 501 1275 719
0 0 0 0 0 0 0 0 0 0 0 0 0 0 0 0 0 0 0 0 0 0 16 11 6 4 6 12 19 39 195 399 204 346 367 546 474 368

GFSNE_con_mucape_102.txt.gz
CAPE
1788 3306 3377 2060 1363 1901 1991 2144 1458 775 638 154 42 99 6 0 796 2310 3123 2262 1561 1494 1082 943 1002 754 266 425 690 833 883 724 723 716 819 815 951 1481
1601 2285 2786 2436 2141 1509 2007 1269 1617 1251 866 419 453 579 384 1096 1303 3003 3116 1996 1972 1523 652 842 871 498 59 217 323 403 417 420 453 537 586 672 657 907
2109 1975 1798 2521 2221 1835 1538 1262 1538 1487 1565 1615 970 1103 900 1267 2729 2993 3180 2713 1961 729 915 677 731 307 50 71 77 102 129 165 196 251 307 438 475 613
1988 2491 2265 976 2232 2881 2471 2335 2350 2260 2077 1769 1865 1973 2266 2859 3043 3903 3201 1779 1608 1207 940 821 618 368 165 149 123 32 67 93 62 58 85 162 324 428
2209 2121 2211 1922 1975 2094 2272 2121 1648 1500 1329 1413 1395 1064 993 1025 1066 1934 2724 2016 2362 531 475 446 456 394 301 272 243 165 103 117 102 136 59 20 57 226
1966 2371 2355 2267 1698 1909 1623 1872 1637 1917 1704 1702 1747 1612 1231 1314 1972 1218 1196 1913 1636 1323 727 732 470 423 293 130 262 149 132 144 155 237 60 17 3 5
1979 1800 1928 1155 714 778 1499 1881 1744 1612 1395 1205 1101 1149 1506 1640 1676 1600 1909 1295 1201 1337 908 1219 877 725 660 535 461 306 263 267 309 353 289 157 28 0
2015 2498 2703 948 935 731 495 484 328 1503 1512 2102 1829 1462 1600 1878 1801 2052 1901 1811 1784 1992 1708 1176 995 1280 1482 1030 784 348 369 323 363 397 271 22 0 0
1425 1721 1423 915 696 553 712 822 667 548 549 972 1454 1608 1899 1963 2475 2128 2106 2243 1913 1555 1304 1380 1426 1502 1377 1408 789 535 441 454 423 394 427 397 333 66
1611 1749 1525 700 323 201 234 976 1837 2129 1447 1069 758 1499 2179 2205 1768 1791 1769 1675 1665 1560 1632 1636 1405 1636 1749 1791 1502 1187 998 891 693 717 831 484 532 486
193 152 269 181 105 76 55 69 421 1192 639 605 562 603 393 217 437 508 685 1194 904 1021 1259 1458 1470 1261 1481 1670 1261 1185 944 1001 1168 1220 940 965 839 681
140 110 17 0 0 0 0 0 0 14 41 45 53 12 13 240 413 362 683 1013 1045 903 1583 765 323 259 190 781 912 1038 1645 1593 1271 1649 1708 1129 999 806
7 2 3 6 4 5 1 0 5 5 0 0 0 1 154 471 386 734 1347 1199 883 693 521 48 87 319 852 895 1190 973 876 875 1468 1281 1257 1513 1512 1143
0 0 0 3 3 14 5 0 1 25 7 5 1 3 9 19 79 87 79 221 462 679 459 643 596 487 584 656 575 776 644 954 1195 1041 1218 1783 1317 1338
0 0 0 0 0 0 0 0 0 0 0 0 0 0 0 0 0 0 0 0 0 1 0 142 616 213 586 565 256 221 222 35 358 1344 1058 1364 1221 1457
0 0 0 0 0 0 0 0 0 0 0 0 0 0 0 0 0 0 0 0 0 0 0 0 0 0 0 0 0 0 0 0 41 603 619 1261 1447 1364
0 0 0 0 0 0 0 0 0 0 0 0 0 0 0 0 0 0 0 0 0 0 0 0 0 0 0 0 0 0 0 0 0 5 28 34 138 249
0 0 0 0 0 0 0 0 0 0 0 0 0 0 0 0 0 0 0 0 0 0 0 0 0 0 0 0 0 0 0 0 0 0 0 0 0 7
0 0 0 0 0 0 0 0 0 0 0 0 0 0 0 0 0 0 0 0 0 0 0 0 0 0 0 0 0 0 0 0 0 0 0 0 0 0
0 0 0 0 0 0 0 0 0 0 0 0 0 0 0 0 0 0 0 0 0 0 0 0 0 0 0 0 0 0 0 0 0 0 0 0 0 0
0 0 0 0 0 0 0 0 0 0 0 0 0 0 0 0 0 0 0 0 0 0 0 0 0 0 0 0 0 0 0 0 0 0 0 0 0 0
0 0 0 0 0 0 0 0 0 0 0 0 0 0 0 0 0 0 0 0 0 0 0 0 0 0 0 0 0 0 0 0 0 0 0 0 0 0
0 0 0 0 0 0 0 0 0 0 0 0 0 0 0 0 0 0 0 0 0 0 0 0 0 0 0 0 0 0 0 0 0 0 0 0 0 0

GFSNE_con_mucape_105.txt.gz
CAPE
748 953 1604 1635 1402 1052 837 631 834 496 425 411 279 570 206 149 283 431 868 1587 1842 1626 1639 1470 614 717 690 119 412 709 806 738 556 501 486 550 656 758
56 1314 1155 1129 1062 826 879 576 787 655 607 708 549 641 469 375 370 650 1111 1571 1752 1650 1657 871 734 584 636 85 102 259 346 365 364 330 321 349 450 468
1042 1121 872 922 1372 1520 1001 1310 938 1176 918 933 678 880 814 604 560 734 1404 1823 1603 1495 1175 1029 836 504 566 292 237 167 60 92 130 156 158 140 215 334
755 1089 933 979 730 831 919 934 976 832 625 403 785 897 628 614 994 893 1565 2319 2009 1248 474 520 423 450 489 274 208 193 215 68 74 256 298 33 49 115
788 929 973 1062 1142 658 457 386 900 820 786 989 971 950 990 1088 880 945 1530 1456 901 1139 669 708 984 711 484 454 427 305 266 152 169 324 295 183 5 2
1052 1018 1030 902 727 714 682 612 862 564 543 516 550 567 832 992 1146 1166 1489 1161 1064 1379 1147 938 732 730 787 903 1199 1303 482 327 295 350 337 218 132 31
795 895 718 747 665 583 542 671 722 397 317 260 346 410 411 628 907 1360 1534 1361 1441 1268 1181 796 790 969 1321 1279 1390 1202 971 369 402 388 349 424 320 52
687 475 734 697 746 582 728 679 426 362 285 506 587 741 713 808 1101 1412 1530 1376 1443 1027 1125 999 1083 1214 1283 1441 1449 1192 572 793 823 650 427 859 744 482
712 929 673 487 462 309 235 464 830 644 598 709 639 563 736 744 1187 1164 1185 1340 1164 921 1105 1231 1179 1127 1122 1178 1286 854 863 914 819 838 847 1076 936 774
632 647 534 392 277 122 73 132 430 629 480 426 502 390 409 534 217 231 568 811 894 784 619 563 1113 407 360 358 777 568 891 992 1118 1299 1344 1354 1282 1030
117 148 104 43 16 4 10 10 6 88 136 159 190 118 20 0 14 99 147 276 389 597 584 720 523 14 0 80 361 689 645 490 460 667 1300 1107 1163 1099
130 126 57 25 5 0 0 0 0 0 0 0 0 0 25 35 88 94 201 218 225 227 515 373 11 0 26 255 163 691 509 499 507 566 1008 564 903 1403
17 30 19 7 0 0 0 1 0 0 0 0 0 5 14 16 19 26 13 25 49 67 6 0 9 15 31 94 231 259 194 456 270 474 508 356 844 1159
0 0 0 0 0 0 0 0 0 0 0 0 1 15 8 1 3 17 27 40 36 5 0 0 0 0 0 0 2 7 9 14 18 0 0 359 322 581
12 0 0 0 0 0 0 0 0 0 0 0 0 0 0 0 0 0 0 0 0 0 0 0 0 0 0 0 0 0 0 0 0 0 1 6 47 135
0 0 0 0 0 0 0 0 0 0 0 0 0 0 0 0 0 0 0 0 0 0 0 0 0 0 0 0 0 0 0 0 0 0 0 0 0 0
0 0 0 0 0 0 0 0 0 0 0 0 0 0 0 0 0 0 0 0 0 0 0 0 0 0 0 0 0 0 0 0 0 0 0 0 0 0
0 0 0 0 0 0 0 0 0 0 0 0 0 0 0 0 0 0 0 0 0 0 0 0 0 0 0 0 0 0 0 0 0 0 0 0 0 0
0 0 0 0 0 0 0 0 0 0 0 0 0 0 0 0 0 0 0 0 0 0 0 0 0 0 0 0 0 0 0 0 0 0 0 0 0 0
0 0 0 0 0 0 0 0 0 0 0 0 0 0 0 0 0 0 0 0 0 0 0 0 0 0 0 0 0 0 0 0 0 0 0 0 0 0
0 0 0 0 0 0 0 0 0 0 0 0 0 0 0 0 0 0 0 0 0 0 0 0 0 0 0 0 0 0 0 0 0 0 0 0 0 0
0 0 0 0 0 0 0 0 0 0 0 0 0 0 0 0 0 0 0 0 0 0 0 0 0 0 0 0 0 0 0 0 0 0 0 0 0 0
0 0 0 0 0 0 0 0 0 0 0 0 0 0 0 0 0 0 0 0 0 0 0 0 0 0 0 0 0 0 0 0 0 0 0 0 0 0

GFSNE_con_mucape_111.txt.gz
CAPE
618 444 889 824 546 516 436 308 401 286 344 334 387 383 616 531 540 538 541 564 521 1243 1041 763 659 856 747 565 506 439 315 448 585 641 515 305 171 172
596 168 782 618 756 702 615 605 552 582 377 471 528 477 486 782 887 1118 1110 1243 1551 1154 780 645 522 520 539 511 468 445 490 622 531 289 317 214 180 109
363 530 412 629 504 577 530 734 444 539 486 284 194 389 714 719 642 714 933 980 788 828 955 614 688 875 981 889 894 1077 1233 1330 1246 604 379 152 85 115
432 370 520 596 761 561 620 518 323 518 491 246 244 525 677 767 776 630 918 880 757 877 801 538 1005 1253 1296 1294 1296 1157 974 920 914 550 406 238 115 102
643 611 564 644 704 637 515 463 425 504 470 439 359 400 247 297 489 508 808 817 847 787 803 597 936 1123 1233 1297 989 926 733 614 754 336 439 484 617 527
552 609 659 674 674 525 411 421 535 502 513 295 285 0 128 183 329 508 575 679 791 611 711 587 677 804 960 786 673 672 808 950 981 762 637 495 420 578
420 470 452 284 267 217 175 228 222 382 379 325 171 225 242 280 411 514 637 555 289 736 495 514 671 488 220 338 436 730 549 480 412 742 844 886 684 615
333 285 240 152 160 269 225 152 335 445 304 219 185 232 224 297 303 279 302 113 124 426 351 498 344 253 43 10 0 125 175 251 423 508 723 670 677 641
400 366 239 134 160 144 120 226 243 185 203 247 182 82 46 83 16 21 0 18 66 222 400 541 142 106 0 0 115 0 0 0 27 252 489 432 410 526
223 303 256 174 116 78 67 74 173 144 108 90 63 23 2 0 0 43 69 52 28 247 79 77 25 4 0 7 30 0 0 0 0 0 45 72 87 206
147 148 154 133 83 41 23 28 20 14 12 11 0 0 0 0 0 0 13 29 30 61 3 0 0 0 0 9 0 0 0 0 0 0 0 0 0 50
71 77 83 74 65 43 20 1 0 0 0 0 0 0 0 0 0 0 0 5 9 0 0 0 0 0 0 0 0 0 0 0 0 0 0 0 0 0
3 0 0 10 27 30 27 5 0 0 0 0 0 0 0 0 0 1 0 0 0 0 0 0 0 0 0 0 0 0 0 0 0 0 0 0 0 0
3 0 0 10 20 18 8 4 0 3 6 1 0 0 0 0 0 0 0 0 0 0 0 0 0 0 0 0 0 0 0 0 0 0 0 0 0 0
38 14 12 25 39 29 26 13 7 0 1 0 0 0 0 0 0 0 0 0 0 0 0 0 0 0 0 0 0 0 0 0 0 0 0 0 0 0
24 65 48 33 6 7 4 0 0 0 0 0 0 0 0 0 0 0 0 0 0 0 0 0 0 0 0 0 0 0 0 0 0 0 0 0 0 0
50 22 13 24 17 17 3 0 0 0 0 0 0 0 0 0 0 0 0 0 0 0 0 0 0 0 0 0 0 0 0 0 0 0 0 0 0 0
0 2 0 0 0 0 0 0 0 0 0 0 0 0 0 0 0 0 0 0 0 0 0 0 0 0 0 0 0 0 0 0 0 0 0 0 0 0
0 0 0 0 0 0 0 0 0 0 0 0 0 0 0 0 0 0 0 0 0 0 0 0 0 0 0 0 0 0 0 0 0 0 0 0 0 0
0 0 0 0 0 0 0 0 0 0 0 0 0 0 0 0 0 0 0 0 0 0 0 0 0 0 0 0 0 0 0 0 0 0 0 0 0 0
0 0 0 0 0 0 0 0 0 0 0 0 0 0 0 0 0 0 0 0 0 0 0 0 0 0 0 0 0 0 0 0 0 0 0 0 0 0
0 0 0 0 0 0 0 0 0 0 0 0 0 0 0 0 0 0 0 0 0 0 0 0 0 0 0 0 0 0 0 0 0 0 0 0 0 0
0 0 0 0 0 0 0 0 0 0 0 0 0 0 0 0 0 0 0 0 0 0 0 0 0 0 0 0 0 0 0 0 0 0 0 0 0 0

GFSNE_con_mucape_114.txt.gz
CAPE
333 351 851 780 474 343 301 170 695 694 638 475 322 339 440 713 945 1082 1139 1234 905 721 776 581 629 561 544 562 491 457 443 501 732 718 635 574 545 322
451 291 555 567 600 568 569 459 406 471 658 304 441 290 329 657 516 877 905 812 697 852 653 487 812 1012 960 887 867 928 1046 1110 1232 1122 537 251 180 164
342 371 592 379 398 480 569 504 364 328 430 433 253 222 437 683 895 784 1069 1293 1133 846 515 624 983 1078 1136 1125 1122 1000 1035 831 849 778 335 208 73 51
415 311 365 448 542 498 367 615 424 217 392 389 206 520 490 508 543 886 979 956 1186 730 583 508 854 959 1105 1132 964 809 739 590 591 433 346 425 513 519
754 577 638 518 626 560 556 387 325 322 359 317 388 213 185 250 659 646 899 1043 784 560 498 514 594 741 844 850 618 528 558 687 776 753 268 484 436 378
616 658 663 844 768 624 442 377 300 370 366 369 248 150 52 188 269 581 961 749 546 722 368 502 504 263 304 362 255 225 247 295 342 618 693 603 548 328
367 625 464 362 318 173 336 264 246 408 267 236 216 133 209 255 460 487 650 314 233 685 495 758 933 553 18 6 24 10 16 58 120 293 482 410 475 509
308 402 290 180 131 105 109 135 162 221 244 181 141 320 299 284 219 9 113 74 128 135 299 957 247 22 11 0 17 0 0 0 0 90 224 326 280 368
172 220 133 107 122 60 71 82 106 124 114 138 186 91 31 29 7 0 9 41 115 70 92 734 48 1 2 0 0 0 0 0 0 0 0 0 45 151
80 75 97 104 82 70 59 93 129 120 90 63 29 3 3 0 0 4 9 0 96 64 41 10 2 4 6 0 0 0 0 0 0 0 0 0 0 40
79 86 73 70 47 56 64 64 52 24 7 0 0 0 0 0 0 0 0 0 13 22 0 0 0 0 0 0 0 0 0 0 0 0 0 0 0 0
68 71 68 34 28 52 34 30 31 19 8 0 0 0 0 0 0 0 0 0 2 0 0 0 6 7 6 0 0 0 0 0 0 0 0 0 0 0
0 4 9 7 0 0 0 8 23 17 9 5 0 0 0 0 0 0 0 0 0 0 0 0 0 0 0 0 0 0 0 0 0 0 0 0 0 0
2 5 0 0 0 0 1 5 11 33 38 4 10 10 2 0 0 0 0 0 0 0 0 0 0 0 0 0 0 0 0 0 0 0 0 0 0 0
3 17 27 13 13 9 42 34 26 20 21 19 0 0 2 0 0 0 0 0 0 0 0 0 0 0 0 0 0 0 0 0 0 0 0 0 0 0
34 34 46 53 45 47 43 13 9 3 5 0 0 0 0 0 0 0 0 0 0 0 0 0 0 0 0 0 0 0 0 0 0 0 0 0 0 0
12 28 62 47 44 32 24 14 5 8 1 0 0 0 0 0 0 0 0 0 0 0 0 0 0 0 0 0 0 0 0 0 0 0 0 0 0 0
0 0 0 1 0 0 0 0 0 0 0 0 0 0 0 0 0 0 0 0 0 0 0 0 0 0 0 0 0 0 0 0 0 0 0 0 0 0
0 0 0 0 0 0 0 0 0 0 0 0 0 0 0 0 0 0 0 0 0 0 0 0 0 0 0 0 0 0 0 0 0 0 0 0 0 0
0 0 0 0 0 0 0 0 0 0 0 0 0 0 0 0 0 0 0 0 0 0 0 0 0 0 0 0 0 0 0 0 0 0 0 0 0 0
0 0 0 0 0 0 0 0 0 0 0 0 0 0 0 0 0 0 0 0 0 0 0 0 0 0 0 0 0 0 0 0 0 0 0 0 0 0
0 0 0 0 0 0 0 0 0 0 0 0 0 0 0 0 0 0 0 0 0 0 0 0 0 0 0 0 0 0 0 0 0 0 0 0 0 0
0 0 0 0 0 0 0 0 0 0 0 0 0 0 0 0 0 0 0 0 0 0 0 0 0 0 0 0 0 0 0 0 0 0 0 0 0 0

GFSNE_con_mucape_117.txt.gz
CAPE
1464 1306 1843 1890 1027 1069 1149 883 898 610 645 949 893 1190 1149 1595 1152 2123 1794 765 631 733 499 640 891 946 911 837 716 522 418 550 827 908 858 813 908 761
1205 813 1369 1594 1608 1442 1377 1166 1083 1119 748 858 856 1242 1303 1415 1008 1529 1373 968 605 547 338 766 883 880 850 950 932 836 812 954 1008 1078 803 292 343 360
1472 1330 1542 1830 1255 1164 1386 1386 1307 1279 902 568 1051 882 1544 1770 1825 1471 1052 1318 1047 555 321 679 716 696 901 921 944 703 699 575 586 624 440 473 514 502
1517 1472 1402 1051 1650 2145 1364 1458 1351 1358 1076 1212 1159 995 1466 1340 1288 1491 1157 834 1264 467 350 383 499 491 605 979 679 439 391 520 731 372 345 305 288 309
1429 1506 1430 1364 1799 1113 2312 2115 1462 1141 1494 1252 1215 1080 967 666 865 1206 1602 1490 430 500 466 330 189 188 164 214 248 208 154 215 447 522 434 395 421 385
1329 1540 1705 1637 1679 1591 1586 1826 1365 1875 1909 1698 1473 1007 779 1017 1068 1215 945 908 532 972 483 138 112 62 30 8 0 0 0 6 99 255 261 257 375 468
1097 1347 1354 370 291 230 507 1458 1430 1713 2000 1806 1959 1271 1750 789 1382 959 544 525 944 244 1105 186 37 9 0 0 0 0 0 0 0 5 101 159 189 281
859 1049 252 94 55 48 39 51 106 1139 1515 1613 1511 1198 1208 836 584 107 214 359 457 77 812 69 15 0 0 0 0 0 0 0 0 0 0 0 24 107
658 1262 123 58 36 37 23 22 30 46 57 891 1037 688 152 196 0 98 438 521 494 52 69 1226 0 4 0 0 0 0 0 0 0 0 0 0 0 0
11 117 100 8 0 14 10 4 22 30 29 24 15 0 0 0 0 47 233 274 0 34 49 87 14 0 12 0 0 0 0 0 0 0 0 0 0 0
4 4 42 29 25 7 0 3 5 4 0 0 0 0 0 0 0 2 0 4 158 13 0 0 0 21 25 8 0 0 0 0 0 0 0 0 0 0
29 47 61 42 36 25 8 16 0 0 0 0 0 0 0 0 0 0 0 0 11 0 3 19 9 0 0 0 0 0 0 0 0 0 0 0 0 0
0 0 10 14 12 6 0 0 0 1 3 0 0 0 0 0 0 0 0 0 0 0 0 0 0 0 0 0 0 0 0 0 0 0 0 0 0 0
0 0 0 0 0 0 0 0 0 0 1 0 0 0 0 0 0 0 0 0 0 0 0 0 0 0 0 0 0 0 0 0 0 0 0 0 0 0
10 11 6 12 11 7 3 1 4 28 12 12 4 2 0 0 0 0 0 0 0 0 0 0 0 0 0 0 0 0 0 0 0 0 0 0 0 0
19 32 20 24 48 45 42 68 52 44 36 13 5 0 0 0 0 0 0 0 0 0 0 0 0 0 0 0 0 0 0 0 0 0 0 0 0 0
2 14 5 3 44 79 48 26 54 57 53 37 20 4 0 0 0 0 0 0 0 0 0 0 0 0 0 0 0 0 0 0 0 0 0 0 0 0
6 13 5 3 0 0 0 0 0 0 0 0 0 0 0 0 0 0 0 0 0 0 0 0 0 0 0 0 0 0 0 0 0 0 0 0 0 0
0 0 0 0 0 0 0 0 0 0 0 0 0 0 0 0 0 0 0 0 0 0 0 0 0 0 0 0 0 0 0 0 0 0 0 0 0 0
0 0 0 0 0 0 0 0 0 0 0 0 0 0 0 0 0 0 0 0 0 0 0 0 0 0 0 0 0 0 0 0 0 0 0 0 0 0
0 0 0 0 0 0 0 0 0 0 0 0 0 0 0 0 0 0 0 0 0 0 0 0 0 0 0 0 0 0 0 0 0 0 0 0 0 0
0 0 0 0 0 0 0 0 0 0 0 0 0 0 0 0 0 0 0 0 0 0 0 0 0 0 0 0 0 0 0 0 0 0 0 0 0 0
0 0 0 0 0 0 0 0 0 0 0 0 0 0 0 0 0 0 0 0 0 0 0 0 0 0 0 0 0 0 0 0 0 0 0 0 0 0

GFSNE_con_mucape_123.txt.gz
CAPE
1583 2217 1919 619 167 325 304 222 169 92 35 610 416 1381 926 410 1234 1354 1112 952 452 545 278 328 209 239 484 616 470 356 431 560 497 716 785 726 1539 1526
1188 2173 2124 1059 1055 808 445 477 511 950 360 203 253 1173 1595 812 373 1239 920 1032 589 556 184 146 105 114 195 498 488 342 192 327 240 339 534 584 290 581
1854 1595 1591 1907 1146 616 998 1246 559 209 473 905 682 1764 1411 808 1221 1402 921 1141 556 532 263 43 0 15 104 171 216 244 176 207 293 200 220 166 195 255
1656 2318 1379 1011 2420 2312 926 2176 1939 2216 1212 2475 1695 774 2232 1797 1326 1411 1520 636 849 334 77 106 13 0 0 0 0 1 3 7 64 160 219 170 182 195
1586 1718 1552 2043 2559 1313 1790 1235 1000 1297 2336 1959 1062 1497 874 619 1693 2249 2248 2565 753 447 155 195 17 3 0 0 0 0 0 0 0 0 43 95 128 231
2058 1470 1571 1858 1684 1351 2439 2764 2377 1623 526 1009 1428 1055 1190 1420 241 601 390 566 279 251 174 75 41 0 0 0 0 0 0 0 0 0 0 0 5 29
1352 1453 1746 1254 792 544 782 1838 1487 736 539 634 725 736 737 917 848 487 882 1284 1427 525 469 114 32 29 0 0 0 0 0 0 0 0 0 0 0 0
1067 1120 1271 750 168 80 74 123 263 1360 1685 2243 1604 1607 2036 2210 2257 1443 846 1383 1165 725 1650 1340 22 0 0 0 0 0 0 0 0 0 0 0 0 0
911 1138 1240 855 297 609 54 16 0 3 0 6 1135 1448 707 211 140 1138 1366 1991 2004 96 442 1538 130 25 40 4 0 0 0 0 0 0 0 0 0 0
187 155 1058 731 148 137 228 77 1 2 0 0 119 70 14 9 8 237 1061 1239 798 126 65 846 179 23 0 0 0 0 0 0 0 0 0 0 0 0
31 39 31 34 34 16 18 63 30 0 0 1 3 1 0 0 0 0 49 564 1454 1612 95 38 237 78 24 0 0 0 0 0 0 0 0 0 0 0
38 16 23 35 55 43 29 227 155 53 15 10 0 0 0 0 0 0 0 5 10 81 28 25 0 0 0 1 0 0 0 0 0 0 0 0 0 0
180 99 37 87 127 132 132 120 92 76 72 0 0 0 0 0 0 0 1 3 6 0 2 0 0 0 0 0 0 0 0 0 0 0 0 0 0 0
188 132 112 97 94 87 87 85 80 66 51 31 0 0 0 0 0 8 1 1 0 0 0 0 0 0 0 0 0 0 0 0 0 0 0 0 0 0
116 102 100 102 109 98 91 91 87 84 72 56 25 24 5 10 11 45 9 0 0 0 0 0 0 0 0 0 0 0 0 0 0 0 0 0 0 0
85 115 100 91 92 95 98 76 65 79 96 103 85 66 73 43 35 22 2 1 0 0 0 0 0 0 0 0 0 0 0 0 0 0 0 0 0 0
81 43 50 39 34 8 7 6 2 0 0 0 0 19 32 4 0 0 0 0 0 0 0 0 0 0 0 0 0 0 0 0 0 0 0 0 0 0
60 37 20 16 3 0 0 0 0 0 0 0 0 0 0 0 0 0 0 0 0 0 0 0 0 0 0 0 0 0 0 0 0 0 0 0 0 0
0 0 0 0 0 0 0 0 0 0 0 0 0 0 0 0 0 0 0 0 0 0 0 0 0 0 0 0 0 0 0 0 0 0 0 0 0 0
0 0 0 0 0 0 0 0 0 0 0 0 0 0 0 0 0 0 0 0 0 0 0 0 0 0 0 0 0 0 0 0 0 0 0 0 0 0
0 0 0 0 0 0 1 2 3 0 0 0 0 0 0 0 0 0 0 0 0 0 0 0 0 0 0 0 0 0 0 0 0 0 0 0 0 0
0 0 0 0 0 0 4 7 5 1 0 0 0 0 0 0 0 0 0 0 0 0 0 0 0 0 0 0 0 0 1 1 0 0 0 0 0 0
8 13 6 0 0 19 0 4 4 5 0 0 0 0 0 0 0 0 0 0 0 0 0 0 0 1 1 3 0 0 7 10 12 8 11 1 0 0